Lapse_Rate
5.4 6.5 6.5 6.5 6.5 6.5 6.5 6.5 6.5 6.5 6.5 6.5 6.5 6.5 6.5 5.8 5.2 5.8 4.0 4.9 5.5 5.8 5.5 6.5 5.8 5.5 5.4 5.3 4.6 4.4 4.3 3.7 3.6 3.6 3.1 3.1 2.7 2.5 3.0 3.3 5.4 5.8 6.2 5.6
6.5 6.5 6.5 6.5 6.5 6.5 6.5 6.5 6.5 6.5 6.5 6.5 6.5 6.5 6.5 6.4 6.2 6.3 4.7 4.4 4.2 5.3 5.6 6.3 5.1 5.3 5.3 4.5 4.8 4.1 4.3 2.7 3.5 3.5 3.0 3.1 3.6 3.0 3.0 3.6 4.5 5.5 6.0 5.1
6.5 6.5 6.4 6.5 6.5 6.5 6.5 6.5 6.5 6.5 6.5 6.5 6.5 6.5 6.5 6.5 6.3 6.4 6.3 5.3 4.7 5.4 6.5 5.3 5.0 5.2 5.2 4.4 4.1 4.1 3.2 2.8 3.1 3.2 2.7 2.7 2.7 2.0 3.1 3.4 3.9 4.8 6.0 5.5
6.5 6.3 6.5 6.5 6.5 6.5 6.5 6.5 6.5 6.5 6.5 6.5 6.5 6.5 6.5 6.5 6.5 6.5 6.5 5.6 4.8 5.3 4.9 5.2 5.3 5.0 4.8 4.4 4.3 3.8 3.8 3.2 2.9 2.7 3.2 3.8 3.7 3.3 3.0 3.2 3.4 4.3 5.9 5.6
6.5 6.5 6.5 6.5 6.5 6.5 6.5 6.5 6.5 6.5 6.5 6.5 6.5 6.5 6.5 6.5 6.5 6.5 6.3 6.3 5.4 4.9 4.6 5.2 5.4 4.9 5.0 4.9 4.1 3.7 3.8 3.6 3.1 2.7 2.7 3.4 3.4 2.7 3.4 2.8 4.0 4.0 4.1 5.7
6.5 5.4 6.5 6.5 6.5 6.5 6.5 6.5 6.5 6.5 6.5 6.5 6.5 6.5 6.5 6.5 6.5 6.5 6.3 6.5 6.4 5.7 4.7 5.4 6.2 5.3 4.7 5.1 4.4 3.8 4.1 3.7 3.0 2.9 2.7 3.2 3.5 3.4 3.2 2.8 3.4 3.5 3.7 4.2
6.5 6.5 6.5 6.3 6.5 6.5 6.5 6.5 6.5 6.5 6.5 6.5 6.5 6.5 6.5 6.5 6.5 6.5 6.4 6.3 6.3 5.2 5.2 4.5 4.7 5.6 4.9 4.7 4.6 3.8 3.9 4.3 3.4 3.4 3.6 3.1 3.3 3.2 3.4 3.2 3.1 3.2 3.5 3.5
6.5 6.5 6.5 6.5 6.5 6.5 6.5 6.5 6.5 6.5 6.5 6.5 6.5 6.5 6.5 6.5 5.8 6.1 6.3 6.1 6.2 5.3 4.8 4.6 4.9 5.1 5.2 4.7 4.4 4.3 3.7 4.1 3.6 3.7 3.9 3.1 3.2 3.4 3.2 3.7 3.3 3.2 3.3 3.5
6.5 6.5 6.5 6.5 6.5 6.5 6.5 6.5 6.5 6.5 6.5 6.5 6.5 6.5 6.5 6.5 6.5 6.1 6.1 5.6 4.7 5.3 4.3 4.9 5.0 4.8 4.2 5.1 4.3 3.9 3.5 3.6 3.9 3.9 4.2 3.3 3.1 3.4 3.3 3.4 3.4 3.2 3.4 4.6
6.5 6.5 6.5 6.5 6.3 6.5 6.5 6.5 6.5 6.5 6.5 6.5 6.5 6.5 6.5 6.5 6.5 6.5 6.3 4.7 4.0 4.5 3.3 3.4 3.3 3.2 5.0 4.9 4.3 4.0 4.0 3.2 3.4 4.1 3.9 4.2 3.6 3.4 2.9 3.0 3.2 3.5 3.9 4.1
6.5 6.5 6.5 6.5 6.5 6.5 6.5 6.5 6.5 6.5 6.5 6.5 6.5 6.5 6.5 6.5 6.5 6.5 6.3 4.9 4.8 3.5 2.7 3.6 2.4 3.0 4.3 5.0 4.8 3.9 4.1 3.9 3.3 3.9 3.5 4.2 3.8 3.6 3.3 2.9 3.6 3.2 4.0 3.9
6.5 6.5 6.5 6.5 6.5 6.5 6.5 6.5 6.5 6.5 6.5 6.5 6.5 6.5 6.5 6.5 6.3 5.5 5.7 5.2 3.8 2.6 2.2 2.4 2.5 2.2 2.5 3.2 4.9 4.9 4.0 3.5 3.3 3.5 3.7 3.6 3.7 4.0 3.4 3.7 3.7 3.5 3.5 3.5
6.5 6.5 6.5 6.5 6.5 6.5 6.5 6.5 6.5 6.5 6.5 6.5 6.5 6.5 6.5 6.2 6.1 5.5 5.1 4.1 4.0 4.1 2.6 1.3 1.9 3.2 2.6 2.6 2.8 3.5 3.8 3.6 3.5 3.6 3.4 3.7 3.5 4.0 4.1 3.5 3.7 3.7 3.6 3.6
3.7 6.5 6.5 6.5 6.5 6.5 6.5 6.5 6.5 6.5 6.5 6.5 6.5 6.5 6.5 6.5 6.5 5.8 3.9 2.7 2.6 2.9 2.5 2.8 2.9 2.7 2.2 2.5 1.8 2.9 3.1 2.9 2.2 2.8 3.5 3.6 3.6 3.9 4.4 3.7 3.6 3.2 3.1 3.5
6.5 6.5 6.5 6.5 6.5 6.5 6.5 6.5 6.5 6.5 6.5 6.5 6.5 6.5 6.5 6.5 6.5 5.6 5.0 4.0 2.5 2.4 2.1 1.3 1.6 2.1 1.6 1.7 2.7 3.5 2.6 2.3 2.5 1.9 2.2 2.7 3.5 4.2 3.8 3.3 3.6 3.6 3.4 3.8
6.5 6.5 6.5 6.5 6.5 6.5 6.5 6.5 6.5 6.5 6.5 6.5 6.5 6.5 6.5 6.0 5.1 5.2 4.6 5.2 5.0 3.5 1.9 0.8 0.6 1.3 1.6 2.2 2.6 3.1 3.7 2.3 2.9 2.8 1.6 2.1 2.0 3.0 4.2 3.9 3.7 3.6 3.6 2.6
6.5 6.5 6.5 6.5 6.5 6.5 6.5 6.5 6.5 6.5 6.5 6.5 6.5 6.5 6.4 6.5 6.1 5.6 5.4 5.4 5.4 4.8 3.3 2.1 2.6 2.1 2.7 2.5 2.4 2.5 2.7 3.4 4.1 4.3 2.8 2.5 2.1 3.1 4.6 3.3 3.1 3.8 3.6 3.3
6.5 6.5 6.5 6.5 6.5 6.5 6.5 6.5 6.5 6.5 6.5 6.5 6.5 6.5 6.2 5.9 4.4 3.8 5.3 6.4 6.1 5.4 4.0 3.4 2.7 2.8 2.7 2.9 3.8 4.0 2.4 2.4 3.4 3.8 3.1 2.2 2.3 3.4 4.0 3.9 3.2 3.1 2.5 2.8
6.5 6.5 6.5 6.5 6.5 6.5 6.5 6.5 6.5 6.5 6.5 6.5 6.5 6.5 5.9 5.1 5.7 5.9 5.2 5.7 6.1 6.1 5.5 4.1 3.1 1.7 2.3 3.5 3.8 3.8 4.1 3.8 2.5 3.1 3.3 3.1 4.4 4.6 3.2 3.6 2.7 2.5 2.3 2.4
6.5 6.5 6.5 6.5 6.5 6.5 6.5 6.5 5.7 6.3 6.5 6.5 6.1 6.2 6.1 5.6 6.5 6.5 3.7 4.7 5.5 4.6 4.7 2.9 1.7 2.1 2.4 2.7 3.2 4.3 4.3 4.6 4.4 3.7 3.7 3.8 4.1 3.2 3.2 2.3 1.6 1.2 0.8 -0.2
6.5 6.5 6.5 6.5 6.5 6.5 6.5 6.0 5.6 6.5 6.5 5.6 5.2 4.8 5.0 6.4 4.1 3.3 3.5 4.5 4.9 4.4 3.8 2.7 1.7 1.4 1.1 1.0 2.4 4.5 4.2 4.0 4.1 4.4 5.3 4.6 4.3 3.7 2.2 1.0 0.5 0.0 0.1 -0.6
6.5 6.5 6.5 6.5 6.5 6.5 5.7 6.4 6.5 5.8 4.7 4.2 3.5 2.9 4.3 3.7 3.6 5.4 5.2 5.4 5.1 4.9 3.8 3.4 1.5 1.2 0.5 1.0 2.9 3.2 3.6 3.6 3.7 4.1 3.4 3.2 3.0 3.0 2.2 2.0 1.4 0.9 0.8 0.3
6.5 6.5 6.5 6.5 6.5 5.3 5.1 6.4 3.0 2.5 2.9 3.5 3.5 4.4 4.5 6.1 5.8 6.2 5.7 5.3 4.9 4.3 3.7 3.5 3.2 2.9 1.3 1.1 1.4 3.0 3.3 3.3 3.4 4.1 3.9 3.8 3.7 3.7 3.3 2.9 2.4 2.0 1.9 1.2
6.5 5.7 6.5 6.5 6.5 6.2 4.2 3.5 3.0 2.8 2.1 2.9 3.1 2.6 4.7 5.5 6.1 6.1 5.4 5.1 5.2 4.6 4.7 4.0 3.6 3.2 2.6 1.6 2.2 2.2 2.7 3.1 3.6 4.1 4.5 4.7 4.0 3.8 3.5 2.9 3.1 2.8 2.8 2.9
5.9 6.2 6.5 6.5 6.2 5.9 6.1 3.6 2.5 3.0 2.1 2.6 3.3 4.0 6.0 4.7 5.5 5.9 5.4 5.5 5.4 4.9 4.6 4.4 3.9 3.6 3.0 2.5 2.4 1.8 2.5 3.1 2.4 1.7 2.5 3.3 2.8 2.3 1.0 -0.9 1.0 1.6 -0.4 2.2
4.9 6.5 6.5 6.5 4.7 4.1 4.5 3.0 2.4 2.3 3.2 3.4 3.7 3.7 4.3 4.8 5.7 6.0 5.8 6.1 5.0 4.7 4.3 4.8 4.7 4.6 4.2 3.5 3.0 2.6 2.7 2.9 3.2 3.0 2.9 2.7 2.8 2.4 1.6 0.9 0.2 -2.0 -2.5 -2.8
Wind_Speed
2 4 6 11 7 7 4 6 11 5 9 7 13 5 9 8 5 7 6 6 4 8 9 14 18 18 17 14 14 14 10 8 7 4 4 2 3 2 1 7 8 8 8 8
5 7 12 7 8 7 7 7 3 2 10 5 9 13 10 12 13 13 9 11 7 6 9 13 17 18 18 17 16 13 12 9 5 4 3 3 3 2 3 5 4 9 10 8
7 11 9 8 11 9 8 9 9 8 13 11 7 6 9 9 5 11 11 6 7 10 15 12 18 19 16 15 15 14 11 11 7 5 4 3 4 3 0 1 3 5 9 12
7 15 11 9 9 6 6 3 14 14 11 5 7 4 5 11 17 14 17 10 12 13 8 15 17 18 18 16 15 13 12 11 8 8 5 6 5 4 3 4 3 4 9 10
10 7 5 8 7 4 6 3 8 6 5 4 1 3 5 7 11 18 19 17 16 15 13 14 20 20 18 15 14 13 13 11 8 9 8 5 5 4 3 3 5 3 3 8
9 8 5 8 2 2 3 6 8 5 3 2 6 6 5 5 11 16 16 20 16 15 13 13 16 17 15 14 13 12 13 11 9 8 8 8 7 6 4 4 5 4 4 4
7 5 4 4 2 5 7 7 4 4 3 6 2 5 8 6 7 16 21 18 16 11 13 14 10 17 15 16 15 13 14 13 11 10 9 8 8 7 7 6 5 5 3 3
3 7 6 3 6 6 3 8 6 5 4 6 2 4 4 3 6 10 12 10 10 10 11 14 12 18 18 18 17 17 16 15 11 11 11 8 8 5 5 5 4 4 4 4
5 6 2 7 5 9 2 1 7 5 1 2 2 2 3 7 6 5 1 5 9 8 10 13 14 12 17 18 18 18 17 15 14 13 11 9 8 7 7 7 5 4 5 4
6 3 2 5 5 1 9 5 4 3 2 2 3 1 4 1 2 0 5 8 9 5 9 9 8 7 17 19 18 19 18 18 15 14 11 10 11 9 7 6 7 6 5 5
3 4 6 4 3 8 1 1 3 5 5 4 2 5 4 2 2 3 4 4 2 8 7 7 6 7 11 16 19 17 16 16 14 14 12 11 11 10 7 7 6 7 5 7
2 6 1 5 5 3 7 9 6 5 5 2 4 5 3 4 6 4 2 1 4 2 3 3 2 4 7 7 10 15 14 15 16 15 12 12 10 10 9 8 7 7 7 6
0 2 3 9 7 7 5 3 2 3 3 5 5 5 4 4 7 4 5 6 6 8 8 6 1 4 3 2 5 6 8 14 13 12 13 11 12 11 11 9 8 7 7 7
9 3 6 6 6 2 5 8 3 5 3 4 5 5 4 1 6 5 5 3 6 7 6 5 3 2 2 3 5 5 6 6 8 10 12 12 12 13 12 11 11 9 7 7
5 5 5 6 6 2 4 7 7 3 5 5 3 5 5 5 6 5 4 4 8 6 6 5 3 2 5 6 6 6 4 4 6 7 4 3 7 10 10 10 11 10 9 9
2 2 4 2 4 4 3 6 6 5 4 5 4 1 4 4 5 2 4 5 6 2 3 4 5 4 4 1 4 5 8 7 7 8 7 3 4 8 11 11 11 10 9 7
7 5 3 2 3 3 3 3 2 3 6 2 3 5 6 5 6 6 6 6 5 2 2 5 4 4 4 1 3 5 7 9 10 10 10 6 7 6 12 10 9 10 10 8
6 6 3 3 4 2 7 3 4 6 3 5 1 4 9 1 3 5 3 4 2 3 2 2 3 3 5 5 5 4 6 9 9 8 8 9 9 13 15 10 9 7 5 6
6 5 3 4 4 3 1 1 2 2 2 3 3 3 4 4 1 1 4 3 4 5 2 2 2 3 5 5 5 5 5 5 10 10 10 12 5 15 13 10 7 5 7 8
6 6 5 3 5 5 7 4 3 3 3 1 3 6 6 5 1 5 5 4 3 3 2 1 4 3 4 4 6 5 6 4 11 12 11 11 2 5 6 7 7 4 9 10
4 3 6 3 3 4 4 6 4 2 6 5 4 5 8 6 5 2 7 4 4 3 1 1 1 2 3 5 5 5 4 11 9 10 12 14 16 8 11 7 8 10 9 8
6 5 3 3 3 4 6 2 4 5 2 5 4 4 4 4 6 5 7 6 3 4 3 1 2 2 4 5 2 4 6 9 11 12 10 12 10 8 8 12 9 8 11 10
2 5 5 6 6 4 2 2 2 7 6 6 5 3 3 5 6 8 7 6 4 4 2 3 3 3 4 3 5 5 6 8 13 10 12 14 13 12 11 11 8 8 8 8
1 3 4 4 3 5 6 6 3 4 7 7 6 6 6 5 6 8 7 6 4 3 5 5 5 3 3 6 5 6 5 6 13 8 7 7 11 11 9 8 7 7 5 5
4 3 6 2 9 10 5 5 8 9 7 6 7 5 5 6 6 8 8 5 4 5 5 4 3 5 4 5 4 5 6 4 9 10 7 6 8 8 8 7 5 5 3 3
4 5 4 5 9 6 5 9 9 5 2 4 6 5 2 5 6 8 6 4 3 4 3 3 5 6 6 6 6 6 6 7 8 7 7 6 5 5 6 6 5 10 7 9
Wind_Direction
273 71 227 236 202 217 232 248 169 215 161 167 200 220 224 224 239 228 218 230 189 165 178 157 166 160 161 163 166 168 162 163 152 154 133 126 153 204 226 234 202 188 190 149
13 237 237 261 281 269 273 195 174 108 171 149 190 225 210 210 218 216 201 221 195 153 149 151 159 164 169 170 170 168 173 152 175 158 149 153 146 203 240 201 225 199 182 150
181 240 215 221 265 270 274 174 176 167 192 211 147 281 182 229 258 225 229 215 182 182 171 158 161 168 170 171 172 173 178 164 170 179 125 94 95 67 246 291 240 212 189 167
216 255 229 241 237 187 206 96 184 163 151 204 157 243 250 193 211 217 231 180 182 193 178 160 173 170 176 179 174 176 178 171 161 166 162 155 168 171 211 195 210 205 211 186
259 274 206 207 187 158 217 21 134 145 173 100 281 46 271 153 211 217 211 219 192 199 197 167 174 181 180 173 177 178 174 168 169 168 166 165 166 194 191 195 195 215 230 198
243 242 182 201 159 140 82 59 40 55 113 14 211 156 279 193 213 210 209 218 205 197 198 195 175 181 178 176 172 175 175 175 173 172 170 182 188 187 187 209 193 213 213 205
325 290 294 127 137 13 79 62 6 356 15 222 124 148 244 297 246 200 201 209 210 185 187 195 181 179 181 178 175 178 179 188 181 178 175 174 194 187 202 194 190 186 207 219
183 315 193 209 156 177 178 142 155 195 186 259 339 211 257 292 312 206 212 204 197 189 186 197 188 178 182 183 179 181 185 186 186 185 188 176 174 179 205 202 203 203 199 217
170 265 145 162 163 127 265 118 185 122 74 40 245 319 4 7 30 48 230 179 221 178 189 201 205 174 184 187 184 187 190 188 187 193 193 186 180 176 197 205 204 205 220 227
210 31 261 185 66 324 149 185 50 15 159 291 321 245 213 212 74 334 274 242 224 169 161 193 180 202 185 186 190 190 190 192 189 187 195 194 189 188 190 195 209 209 226 226
113 97 300 90 178 190 336 334 78 116 140 167 182 262 249 128 304 192 254 283 182 190 164 145 177 177 197 194 193 189 190 191 189 192 188 195 195 190 186 189 214 201 190 183
34 130 156 231 275 251 193 198 147 130 244 167 149 267 267 128 189 179 193 146 55 134 199 146 104 164 154 162 191 195 188 190 193 193 190 189 194 193 188 194 204 185 198 194
161 19 42 347 354 5 31 23 175 129 101 191 141 249 84 101 111 89 27 27 32 1 357 19 162 292 6 84 129 144 196 201 193 190 187 191 189 192 200 195 201 202 207 209
85 90 142 184 202 192 319 311 320 114 110 176 207 177 217 155 109 75 114 62 58 95 44 28 349 298 246 282 124 257 193 209 182 188 189 190 199 197 198 195 200 202 203 206
103 177 189 206 224 269 249 292 311 208 210 157 230 183 235 172 155 155 101 43 78 95 120 115 79 185 200 216 220 202 179 162 135 125 113 272 242 209 197 195 200 197 193 207
56 226 161 268 289 305 311 348 322 83 111 123 118 60 237 177 123 103 95 109 119 115 64 62 62 74 57 121 234 218 178 159 157 143 133 90 32 291 217 205 200 192 189 196
140 135 99 248 7 0 13 231 69 63 52 82 100 226 178 250 216 177 172 145 126 251 143 80 6 7 10 291 195 176 186 179 193 220 176 173 229 268 253 208 199 191 184 181
136 132 128 183 46 28 244 44 96 110 57 351 64 239 192 203 125 141 125 129 159 184 107 29 321 346 337 343 339 283 203 170 176 200 199 194 265 279 241 198 190 189 174 172
143 124 115 135 165 278 187 248 161 138 277 306 103 186 85 84 81 234 163 155 175 194 223 239 270 337 334 335 307 282 239 243 169 175 185 168 240 247 217 188 169 150 134 117
86 85 126 115 141 199 231 203 183 101 278 251 147 184 164 134 197 248 170 152 117 108 257 328 349 18 12 320 331 318 52 295 214 190 187 191 188 163 143 122 122 103 107 109
85 42 146 141 182 294 232 184 145 139 239 188 187 210 169 193 204 140 123 114 126 144 18 82 46 3 291 315 351 317 349 53 355 188 181 171 173 151 106 115 119 111 105 98
158 135 173 90 106 246 189 121 194 193 41 175 211 227 225 159 115 114 117 124 155 109 103 126 87 340 360 331 23 336 35 54 43 39 62 96 93 93 105 100 96 117 115 106
87 169 178 160 207 229 50 155 290 162 155 196 193 200 140 142 152 137 123 120 110 91 96 62 64 358 16 356 50 48 9 55 66 51 60 66 75 85 74 85 83 80 79 92
351 132 110 95 234 110 116 99 98 147 162 157 171 193 141 125 133 131 125 111 99 102 74 53 56 42 26 37 55 61 48 87 100 81 67 85 90 80 85 91 81 86 91 96
200 9 138 90 86 79 32 135 165 166 152 160 139 133 142 153 172 153 122 108 110 87 71 58 53 59 41 49 66 75 66 82 112 108 88 75 73 84 78 51 70 104 76 141
174 186 150 211 179 140 192 191 194 160 191 174 155 110 58 144 157 104 108 128 99 102 98 99 69 62 45 72 69 70 80 99 98 90 96 95 94 88 98 97 78 42 64 68